When you browse on this site, cookies collect data to enhance your experience and personalize the content and advertising you see.
Visit our Privacy Policy to learn more. By continuing to use the site, you agree to this use of cookies and data.

Hourly Weather Schwerin

Today, 10 August, Monday

Time Temperature Precipitation Wind Pressure Humidity
00:00 +20°C° 0 mm 2 mps 760 mmHg 89%
01:00 +21°C° 0 mm 1 mps 759 mmHg 91%
02:00 +20°C° 0.2 mm 2 mps 759 mmHg 92%
03:00 +20°C° 0.2 mm 2 mps 759 mmHg 93%
04:00 +19°C° 0.2 mm 2 mps 759 mmHg 94%
05:00 +20°C° 0 mm 2 mps 759 mmHg 90%
06:00 +21°C° 0 mm 3 mps 759 mmHg 87%
07:00 +23°C° 0 mm 2 mps 760 mmHg 84%
08:00 +25°C° 0 mm 2 mps 759 mmHg 77%
09:00 +27°C° 0 mm 3 mps 759 mmHg 69%
10:00 +29°C° 0 mm 3 mps 759 mmHg 61%
11:00 +30°C° 0 mm 3 mps 759 mmHg 57%
12:00 +31°C° 0 mm 3 mps 759 mmHg 53%
13:00 +33°C° 0 mm 4 mps 759 mmHg 50%
14:00 +33°C° 0.1 mm 4 mps 759 mmHg 49%
15:00 +33°C° 0.1 mm 4 mps 759 mmHg 49%
16:00 +33°C° 0.1 mm 4 mps 759 mmHg 49%
17:00 +30°C° 0.1 mm 4 mps 759 mmHg 56%
18:00 +29°C° 0.1 mm 4 mps 759 mmHg 64%
19:00 +27°C° 0.1 mm 4 mps 759 mmHg 71%
20:00 +25°C° 0.1 mm 4 mps 759 mmHg 76%
21:00 +23°C° 0.1 mm 4 mps 760 mmHg 82%
22:00 +21°C° 0.1 mm 3 mps 760 mmHg 87%
23:00 +20°C° 0 mm 3 mps 760 mmHg 88%

Tomorrow, 11 August, Tuesday

Time Temperature Precipitation Wind Pressure Humidity
00:00 +20°C° 0 mm 3 mps 761 mmHg 90%
01:00 +19°C° 0 mm 3 mps 761 mmHg 91%
02:00 +19°C° 0 mm 3 mps 761 mmHg 92%
03:00 +19°C° 0 mm 3 mps 761 mmHg 93%
04:00 +19°C° 0 mm 3 mps 760 mmHg 93%
05:00 +20°C° 0 mm 3 mps 761 mmHg 91%
06:00 +20°C° 0 mm 3 mps 761 mmHg 88%
07:00 +21°C° 0 mm 3 mps 761 mmHg 86%
08:00 +23°C° 0 mm 4 mps 761 mmHg 79%
09:00 +26°C° 0 mm 4 mps 761 mmHg 73%
10:00 +28°C° 0 mm 4 mps 761 mmHg 67%
11:00 +29°C° 0 mm 4 mps 761 mmHg 62%
12:00 +30°C° 0 mm 4 mps 761 mmHg 57%
13:00 +32°C° 0 mm 4 mps 761 mmHg 52%
14:00 +30°C° 0 mm 5 mps 761 mmHg 52%
15:00 +30°C° 0 mm 5 mps 761 mmHg 52%
16:00 +30°C° 0 mm 5 mps 761 mmHg 52%
17:00 +28°C° 0 mm 5 mps 761 mmHg 57%
18:00 +27°C° 0 mm 5 mps 761 mmHg 63%
19:00 +25°C° 0 mm 5 mps 761 mmHg 68%
20:00 +23°C° 0 mm 5 mps 761 mmHg 68%
21:00 +21°C° 0 mm 5 mps 761 mmHg 68%
22:00 +20°C° 0 mm 5 mps 761 mmHg 69%
23:00 +19°C° 0 mm 5 mps 761 mmHg 71%

Day after tomorrow, 12 August, Wednesday

Time Temperature Precipitation Wind Pressure Humidity
00:00 +19°C° 0 mm 4 mps 761 mmHg 74%
01:00 +19°C° 0 mm 4 mps 761 mmHg 77%
02:00 +18°C° 0 mm 4 mps 761 mmHg 78%
03:00 +18°C° 0 mm 4 mps 761 mmHg 80%
04:00 +18°C° 0 mm 3 mps 761 mmHg 81%
05:00 +18°C° 0 mm 4 mps 761 mmHg 78%
06:00 +19°C° 0 mm 4 mps 761 mmHg 74%
07:00 +20°C° 0 mm 4 mps 761 mmHg 71%
08:00 +22°C° 0 mm 4 mps 761 mmHg 67%
09:00 +23°C° 0 mm 4 mps 761 mmHg 62%
10:00 +26°C° 0 mm 4 mps 761 mmHg 58%
11:00 +27°C° 0 mm 4 mps 761 mmHg 55%
12:00 +28°C° 0 mm 4 mps 761 mmHg 51%
13:00 +29°C° 0 mm 4 mps 760 mmHg 48%
14:00 +29°C° 0 mm 4 mps 760 mmHg 46%
15:00 +29°C° 0 mm 4 mps 760 mmHg 45%
16:00 +29°C° 0 mm 4 mps 760 mmHg 44%
17:00 +28°C° 0 mm 4 mps 759 mmHg 50%
18:00 +26°C° 0 mm 3 mps 759 mmHg 55%
19:00 +25°C° 0 mm 3 mps 759 mmHg 61%
20:00 +22°C° 0 mm 3 mps 759 mmHg 66%
21:00 +21°C° 0 mm 4 mps 759 mmHg 70%
22:00 +20°C° 0 mm 4 mps 759 mmHg 75%
23:00 +19°C° 0 mm 4 mps 759 mmHg 74%

13 August, Thursday

Time Temperature Precipitation Wind Pressure Humidity
00:00 +19°C° 0 mm 4 mps 759 mmHg 74%
01:00 +19°C° 0 mm 3 mps 759 mmHg 74%
02:00 +18°C° 0 mm 3 mps 758 mmHg 74%
03:00 +18°C° 0 mm 3 mps 758 mmHg 74%
04:00 +18°C° 0 mm 3 mps 758 mmHg 74%
05:00 +18°C° 0 mm 3 mps 758 mmHg 72%
06:00 +19°C° 0 mm 3 mps 757 mmHg 70%
07:00 +20°C° 0 mm 4 mps 757 mmHg 68%
08:00 +22°C° 0 mm 4 mps 757 mmHg 63%
09:00 +25°C° 0 mm 4 mps 757 mmHg 59%
10:00 +27°C° 0 mm 4 mps 757 mmHg 55%
11:00 +28°C° 0 mm 4 mps 757 mmHg 51%
12:00 +29°C° 0 mm 4 mps 757 mmHg 48%
13:00 +30°C° 0 mm 4 mps 756 mmHg 45%
14:00 +32°C° 0 mm 4 mps 756 mmHg 44%
15:00 +31°C° 0 mm 3 mps 756 mmHg 44%
16:00 +31°C° 0 mm 3 mps 756 mmHg 43%
17:00 +29°C° 0 mm 3 mps 756 mmHg 49%
18:00 +28°C° 0 mm 3 mps 756 mmHg 55%
19:00 +26°C° 0 mm 3 mps 755 mmHg 61%
20:00 +25°C° 0 mm 3 mps 755 mmHg 62%
21:00 +23°C° 0 mm 4 mps 755 mmHg 63%
22:00 +22°C° 0 mm 4 mps 755 mmHg 64%
23:00 +22°C° 0 mm 4 mps 755 mmHg 64%

14 August, Friday

Time Temperature Precipitation Wind Pressure Humidity
00:00 +21°C° 0 mm 3 mps 755 mmHg 64%
01:00 +20°C° 0 mm 3 mps 755 mmHg 63%
02:00 +20°C° 0.1 mm 3 mps 755 mmHg 65%
03:00 +20°C° 0.1 mm 3 mps 755 mmHg 67%
04:00 +19°C° 0.1 mm 2 mps 754 mmHg 69%
05:00 +20°C° 0.1 mm 3 mps 754 mmHg 69%
06:00 +20°C° 0.1 mm 3 mps 754 mmHg 70%
07:00 +21°C° 0.1 mm 3 mps 754 mmHg 70%
08:00 +22°C° 0 mm 3 mps 754 mmHg 69%
09:00 +24°C° 0 mm 3 mps 755 mmHg 67%
10:00 +25°C° 0 mm 2 mps 755 mmHg 66%
11:00 +27°C° 0.1 mm 2 mps 755 mmHg 62%
12:00 +28°C° 0.1 mm 2 mps 754 mmHg 58%
13:00 +30°C° 0.1 mm 2 mps 754 mmHg 54%
14:00 +30°C° 1.3 mm 2 mps 754 mmHg 57%
15:00 +30°C° 1.3 mm 2 mps 754 mmHg 59%
16:00 +29°C° 1.3 mm 2 mps 754 mmHg 61%
17:00 +28°C° 1 mm 2 mps 754 mmHg 68%
18:00 +26°C° 1 mm 2 mps 754 mmHg 74%
19:00 +25°C° 1 mm 1 mps 754 mmHg 80%
20:00 +24°C° 0.1 mm 1 mps 754 mmHg 82%
21:00 +23°C° 0.1 mm 1 mps 755 mmHg 84%
22:00 +22°C° 0.1 mm 1 mps 755 mmHg 87%
23:00 +22°C° 0 mm 1 mps 755 mmHg 87%

15 August, Saturday

Time Temperature Precipitation Wind Pressure Humidity
00:00 +21°C° 0 mm 1 mps 755 mmHg 88%
01:00 +21°C° 0 mm 1 mps 755 mmHg 88%
02:00 +21°C° 0 mm 1 mps 755 mmHg 88%
03:00 +20°C° 0 mm 1 mps 755 mmHg 88%
04:00 +20°C° 0 mm 1 mps 755 mmHg 88%
05:00 +21°C° 0 mm 1 mps 755 mmHg 85%
06:00 +22°C° 0 mm 1 mps 755 mmHg 83%
07:00 +22°C° 0 mm 1 mps 755 mmHg 81%
08:00 +23°C° 0 mm 1 mps 756 mmHg 77%
09:00 +25°C° 0 mm 1 mps 756 mmHg 73%
10:00 +26°C° 0 mm 2 mps 756 mmHg 69%
11:00 +26°C° 0.1 mm 2 mps 756 mmHg 69%
12:00 +26°C° 0.1 mm 2 mps 756 mmHg 70%
13:00 +26°C° 0.1 mm 3 mps 756 mmHg 70%
14:00 +26°C° 0.1 mm 3 mps 756 mmHg 71%
15:00 +26°C° 0.1 mm 3 mps 756 mmHg 71%
16:00 +26°C° 0.1 mm 3 mps 756 mmHg 72%
17:00 +25°C° 0.1 mm 2 mps 756 mmHg 74%
18:00 +24°C° 0.1 mm 2 mps 756 mmHg 77%
19:00 +23°C° 0.1 mm 1 mps 756 mmHg 80%
20:00 +23°C° 0.1 mm 1 mps 757 mmHg 80%
21:00 +22°C° 0.1 mm 1 mps 757 mmHg 80%
22:00 +21°C° 0.1 mm 1 mps 757 mmHg 81%
23:00 +21°C° 0 mm 1 mps 757 mmHg 80%
Show more